Location: Castillon
(43.0896°N, 0.2156°E)
Time: 10:30:00
(UTC+00:00)

Cosmos 1544 Rocket - Pass Details

Date: 27 October 2021
Orbit: 603 x 631 km, 82.5° (Epoch: 08 December)

Event Time Altitude Azimuth Distance (km) Brightness Sun altitude
Rises 18:09:19 0° 202° (SSW) 2,910 7.4 -13.6°
Reaches altitude 10° 18:11:37 10° 209° (SSW) 2,007 6.6 -14.1°
Maximum altitude 18:15:54 45° 282° (WNW) 861 4.8 -14.8°
Drops below altitude 10° 18:20:12 10° 356° (N) 2,017 6.2 -15.6°
Sets 18:22:31 0° 3° (N) 2,926 7.0 -16.0°
